Location: Street
(51.1247°N, 2.7429°W)
Time: 05:39:02
(UTC+01:00)

CAS-6 - Pass Details

Date: 28 March 2023
Orbit: 610 x 632 km, 97.9° (Epoch: 29 May)

Event Time Altitude Azimuth Distance (km) Brightness Sun altitude
Exits shadow 21:25:53 10° 57° (ENE) 1,975 ? -17.1°
Maximum altitude 21:26:13 10° 52° (NE) 1,971 ? -17.1°
Drops below altitude 10° 21:26:59 10° 42° (NE) 2,001 ? -17.2°
Sets 21:31:10 0° 2° (N) 2,922 ? -17.8°
